Location: L�gaud
(45.7115°N, 1.7775°E)
Time: 07:05:50
(UTC+00:00)

Cosmos 2360 Rocket - Pass Details

Date: 03 March 2021
Orbit: 832 x 846 km, 71.0° (Epoch: 10 April)

Event Time Altitude Azimuth Distance (km) Brightness Sun altitude
Rises 20:20:28 0° 237° (WSW) 3,382 5.8 -27.9°
Reaches altitude 10° 20:23:12 10° 248° (WSW) 2,454 5.1 -28.4°
Maximum altitude 20:28:06 30° 309° (NW) 1,478 4.0 -29.2°
Drops below altitude 10° 20:33:03 10° 10° (N) 2,474 4.8 -30.0°
Sets 20:35:50 0° 21° (NNE) 3,414 5.4 -30.4°
